Regional Weather Roundup
Issued by NWS

Home | Current Version | Previous Version | Text Only | Print | Product List | Glossary Off
Versions: 1 2 3 4 5 6 7 8 9 10 11 12 13 14 15 16 17 18 19 20 21 22 23 24 25 26 27 28 29 30 31 32 33 34 35 36 37 38 39 40 41 42 43 44 45 46 47 48 49 50

165
ASUS44 KMEG 271000
RWRTN
TENNESSEE HOURLY STATE WEATHER ROUNDUP
NATIONAL WEATHER SERVICE MEMPHIS TN
500 AM CDT MON MAR 27 2017

TNZ002-004-019-021-049-052-054-088>092-271100-
WEST TENNESSEE

CITY           SKY/WX    TMP DP  RH WIND       PRES   REMARKS
MEMPHIS INTL   CLOUDY    68  61  78 SW12      29.90R
NWS MEMPHIS      N/A     66 N/A N/A MISG        N/A
JACKSON        TSTM      63  59  87 S17G28    29.91R FOG
DYERSBURG      CLOUDY    59  53  80 SE6       29.87F
PARIS          PTCLDY    54  50  87 SE7       29.89F
$$

TNZ008-025-027-028-033-062-065-066-271100-
NORTH MIDDLE TENNESSEE

CITY           SKY/WX    TMP DP  RH WIND       PRES   REMARKS
NASHVILLE      MOCLDY    58  54  86 S5        29.94S
CLARKSVILLE    CLOUDY    53  49  86 E3        29.93R
SMYRNA         PTCLDY    55  53  93 CALM      29.96R
CROSSVILLE     PTCLDY    56  52  86 S3        30.02S
$$

TNZ061-075-076-078-094-096-097-271100-
SOUTH MIDDLE TENNESSEE

CITY           SKY/WX    TMP DP  RH WIND       PRES   REMARKS
TULLAHOMA      CLEAR     55  54  94 S5        29.99S
WINCHESTER     CLEAR     61  57  88 S5        29.99S
COLUMBIA       MOCLDY   N/A N/A N/A SW13      29.93R
SHELBYVILLE    CLEAR     61  57  88 S7        29.98R
$$

TNZ017-018-042-046-047-271100-
NORTHEAST TENNESSEE

CITY           SKY/WX    TMP DP  RH WIND       PRES   REMARKS
TRI CITIES     CLOUDY    54  52  93 CALM      30.05R
$$

TNZ012-013-036-069-073-074-271100-
CENTRAL EAST TENNESSEE

CITY           SKY/WX    TMP DP  RH WIND       PRES   REMARKS
KNOXVILLE      CLOUDY    56  52  86 CALM      30.00S
GATLINBURG     MOCLDY    52  48  87 CALM      30.02S
$$

TNZ083-085-099-271100-
SOUTHEAST TENNESSEE

CITY           SKY/WX    TMP DP  RH WIND       PRES   REMARKS
CHATTANOOGA    PTCLDY    54  52  93 CALM      30.02R
$$

SKY/WX REPORTED AS FAIR MEANS FEW OR NO CLOUDS BELOW
12 THOUSAND FEET.





USA.gov is the U.S. government's official web portal to all federal, state and local government web resources and services.